Regional Weather Roundup
Issued by NWS Cleveland, OH

Home | Current Version | Previous Version | Graphics & Text | Print | Product List | Glossary On
Versions: 1 2 3 4 5 6 7 8 9 10 11 12 13 14 15 16 17 18 19 20 21 22 23 24 25 26 27 28 29 30 31 32 33 34 35 36 37 38 39 40 41 42 43 44 45 46 47 48 49 50
000
ASUS41 KCLE 181500
RWRCLE
OHIO REGIONAL WEATHER ROUNDUP
NATIONAL WEATHER SERVICE WILMINGTON, OH
1100 AM EDT WED OCT 18 2017

NOTE: "FAIR" INDICATES FEW OR NO CLOUDS BELOW 12,000 FEET WITH NO
SIGNIFICANT WEATHER AND/OR OBSTRUCTIONS TO VISIBILITY.

OHZ001>008-015>018-024>027-034-035-043-044-181600-
   NORTHWEST OHIO

CITY           SKY/WX    TMP DP  RH WIND       PRES   REMARKS
DEFIANCE       FAIR      58  43  57 SW12      30.27S
FINDLAY        FAIR      61  44  53 S12       30.29S
TOLEDO EXPRESS FAIR      59  45  59 S8        30.27S
TOLEDO EXEC    FAIR      59  44  57 SW8       30.29S
LIMA           FAIR      59  45  59 SW8       30.30S
$$

OHZ009>014-019>023-028>033-038-089-181600-
   NORTHEAST OHIO

CITY           SKY/WX    TMP DP  RH WIND       PRES   REMARKS
CLE-HOPKINS    FAIR      61  44  53 S8        30.33S
CLE-LAKEFRONT  FAIR      61  42  49 S10       30.30S
CUY CO. ARPT   SUNNY     63  43  48 SW8       30.32S
LORAIN-ELYRIA  FAIR      59  41  51 S8        30.31F
ASHTABULA      FAIR      60  43  53 S8        30.32F
AKRON-CANTON   FAIR      60  43  53 SW6       30.33F
WOOSTER        NOT AVBL
MANSFIELD      FAIR      60  44  55 S8        30.32S
YOUNGSTOWN     FAIR      59  42  53 S5        30.33F
$$

OHZ042-051>053-060>062-070>072-077>081-181600-
  SOUTHWEST OHIO

CITY           SKY/WX    TMP DP  RH WIND       PRES   REMARKS
CINC-COVINGTON FAIR      60  47  61 S7        30.33S
CINC-LUNKEN    FAIR      55  49  80 SW3       30.35S
HAMILTON       FAIR      58  47  66 CALM      30.34S
DAYTON         NOT AVBL
WRIGHT-PAT AFB NOT AVBL
DAYTON GENERAL FAIR      58  44  60 S10       30.32S
WILMINGTON     FAIR      60  44  55 S8        30.33S
$$

OHZ036-037-039>041-045>050-054>059-063>069-073>076-082>088-181600-
  CENTRAL AND SOUTHEAST OHIO

CITY           SKY/WX    TMP DP  RH WIND       PRES   REMARKS
COLUMBUS       FAIR      57  44  62 CALM      30.34S
OSU AIRPORT    FAIR      58  46  64 SW5       30.33S
BOLTON FIELD   SUNNY     57  45  62 S5        30.34S
RICKENBACK AFB NOT AVBL
NEWARK         FAIR      57  44  62 CALM      30.34S
MARION         FAIR      58  43  57 S8        30.33S
LANCASTER      FAIR      59  47  64 CALM      30.34S
ZANESVILLE     FAIR      56  44  64 CALM      30.36R
NEW PHILLY     FAIR      56  44  64 E5        30.36F
$$




USA.gov is the U.S. government's official web portal to all federal, state and local government web resources and services.